Theta_e
304 301 291 298 299 300 301 301 301 300 306 305 305 305 304 302 300 301 298 299 304 305 299 299 299 305 307 310 312 311 311 312 312 312 312 311 311 310 310 309 310 312 313 313 312 314 312 306 307 310 308 305 306 306
304 301 291 298 298 300 300 301 301 299 306 304 304 304 303 303 299 300 301 298 299 303 300 296 296 296 296 298 306 308 310 311 311 311 311 310 310 309 310 311 307 311 311 311 310 311 307 307 308 305 305 306 305 305
304 301 292 298 298 299 300 301 300 299 306 305 304 304 304 304 304 300 300 299 302 303 301 301 300 297 296 296 296 308 309 307 308 305 310 310 311 309 310 310 310 308 306 309 309 309 307 306 305 304 303 304 303 303
304 299 292 297 298 299 299 300 299 299 305 306 305 304 304 304 304 304 299 298 302 305 309 302 297 298 296 297 297 298 301 302 304 306 310 310 310 306 309 308 308 308 307 309 309 308 306 305 304 304 302 301 301 300
304 297 292 297 298 299 299 300 299 299 305 305 305 305 305 304 304 304 299 298 298 304 308 304 298 297 297 298 299 300 302 304 307 310 311 310 306 306 305 305 308 306 308 309 308 307 306 305 302 302 302 301 300 299
304 296 292 297 298 299 299 299 300 300 301 304 304 304 304 304 304 302 304 298 297 300 307 308 299 299 298 298 299 299 299 302 304 307 308 304 300 304 308 308 307 306 305 304 306 301 302 300 299 299 301 299 297 297
303 295 293 296 298 298 299 300 302 302 301 304 303 302 299 300 301 301 302 299 297 298 305 306 306 298 296 298 300 301 300 301 303 304 304 304 303 303 307 307 305 302 303 301 300 300 301 300 301 298 298 296 295 294
303 293 292 297 298 298 301 302 303 303 302 303 303 300 299 299 298 299 296 296 296 299 302 307 306 301 297 302 304 299 302 302 301 302 300 302 300 301 305 305 301 299 299 300 300 298 298 298 297 297 296 295 294 292
303 292 294 298 297 299 303 303 304 302 303 303 303 301 300 300 300 298 295 295 294 298 307 304 309 309 298 300 301 301 300 305 300 303 302 300 303 305 305 304 301 300 300 301 298 297 297 297 297 296 294 292 291 291
303 291 294 298 298 300 303 301 302 303 302 302 299 300 302 297 297 296 297 299 300 299 298 303 300 304 301 301 302 303 301 304 306 303 299 301 304 304 301 298 298 299 299 299 298 297 295 295 294 293 292 291 290 290
302 291 295 298 298 300 303 303 302 301 298 298 299 300 296 296 297 297 301 302 301 301 299 299 300 300 297 304 305 301 305 302 305 304 302 305 304 302 299 299 298 298 298 298 296 295 295 294 293 291 291 290 290 289
302 291 296 298 298 299 303 302 300 298 298 298 298 296 296 297 298 299 303 297 297 303 296 298 298 299 297 297 302 299 303 299 305 299 302 304 306 300 298 297 297 298 297 295 293 292 291 291 290 290 290 289 289 288
302 291 296 298 298 299 303 302 299 299 297 296 296 298 300 297 299 299 301 302 299 297 296 297 298 297 295 297 299 299 301 302 297 300 303 305 300 297 297 297 296 297 296 294 292 291 290 289 289 289 289 288 287 287
301 290 296 298 298 298 301 301 299 297 296 300 300 299 301 300 299 302 301 302 297 297 297 299 297 299 297 299 298 300 299 297 300 300 302 305 299 297 296 296 295 295 293 292 292 290 289 288 287 287 286 286 286 286
300 290 295 298 298 298 299 301 299 297 296 300 297 301 300 299 295 295 292 294 294 296 297 297 297 298 298 298 298 298 297 299 300 305 308 302 297 296 295 294 295 294 293 292 290 288 287 286 286 286 286 285 285 285
297 293 297 298 299 298 301 301 297 297 295 295 295 296 293 295 297 294 294 295 294 296 295 297 298 298 300 300 298 299 300 302 306 302 300 295 294 295 295 294 293 292 292 291 289 289 288 287 286 286 284 284 284 283
295 296 296 298 298 299 299 297 297 296 297 296 297 294 296 295 299 296 294 294 294 296 300 299 298 300 295 298 298 299 301 306 303 296 294 295 294 294 293 292 290 289 289 289 288 287 286 285 283 283 284 284 283 282
295 294 296 298 299 299 296 297 296 296 299 297 298 297 293 294 295 294 292 292 295 296 295 298 294 296 300 301 302 301 298 294 292 293 293 292 292 292 291 290 289 288 289 287 286 285 283 283 284 285 283 283 282 283
295 295 297 299 299 298 296 295 294 298 298 294 293 292 293 293 292 292 293 292 292 291 293 292 295 299 300 298 301 301 296 294 293 292 291 290 290 290 289 288 288 287 286 284 284 286 285 283 283 282 282 282 282 282
295 294 297 299 298 296 296 295 293 296 296 295 291 293 294 294 292 291 292 292 292 293 294 293 295 297 295 296 295 296 294 293 291 291 290 289 288 287 287 286 286 286 285 283 283 284 284 283 282 281 280 280 280 279
294 294 299 298 298 297 297 295 294 295 294 293 292 292 293 288 290 291 292 291 293 295 295 295 294 294 289 289 288 290 291 292 293 293 292 290 286 287 285 285 285 285 285 285 284 283 283 282 281 280 279 278 278 278
293 295 299 297 294 292 294 293 295 291 291 291 291 292 292 292 292 291 291 291 294 296 295 295 292 290 290 289 289 289 291 291 290 291 290 288 285 285 285 284 284 285 284 284 283 283 281 279 279 279 278 277 276 276
294 296 292 292 294 292 295 290 293 290 292 290 290 293 293 293 293 288 292 293 295 294 293 290 288 286 289 286 286 287 289 289 289 288 288 288 286 286 285 284 285 285 283 281 281 280 279 277 277 277 276 275 275 275
294 293 295 294 296 295 289 290 292 291 290 291 291 293 292 293 284 288 292 297 294 289 288 287 286 286 285 285 287 288 287 288 287 286 286 286 285 284 285 283 282 282 282 281 279 278 277 276 276 275 275 274 275 275
295 295 294 294 292 290 290 290 291 293 292 291 291 293 289 285 290 292 293 297 295 290 290 287 287 289 290 290 289 288 286 287 287 286 284 286 284 281 281 280 280 280 280 279 278 277 276 275 275 275 274 274 275 275
298 296 295 294 291 292 291 291 291 292 292 291 291 290 286 289 291 294 296 297 295 293 290 288 289 289 289 290 290 288 285 286 287 287 284 284 284 284 283 281 280 279 279 279 278 277 276 275 275 274 275 274 274 273
299 295 292 291 291 291 291 291 291 292 290 290 289 287 288 292 295 296 295 292 296 293 292 290 290 291 291 289 289 289 287 286 287 287 286 284 285 284 284 283 282 282 280 279 278 277 276 275 275 275 274 274 273 272
294 291 290 290 291 291 290 291 291 292 293 291 289 288 290 294 298 297 294 286 286 286 289 289 290 290 291 289 286 285 283 284 284 284 283 282 282 281 282 282 282 281 280 279 277 276 276 275 275 275 274 274 273 273
291 291 291 289 287 288 289 291 292 293 292 291 294 296 295 295 291 287 283 281 282 286 286 286 283 286 284 283 283 283 283 282 282 283 284 283 279 278 279 280 279 279 278 277 276 275 275 275 275 275 274 274 274 273
289 291 290 289 288 290 290 289 292 287 286 289 289 289 289 286 282 280 280 280 283 286 287 287 282 284 283 282 280 279 281 283 286 286 286 285 283 282 280 279 279 278 277 276 276 275 276 275 274 274 274 273 273 273
286 285 285 288 289 286 282 281 282 284 284 285 285 289 293 287 281 279 279 280 283 284 285 282 283 284 284 283 283 282 280 281 284 285 285 285 284 283 281 280 279 278 277 276 275 275 275 275 274 274 273 273 272 272
286 286 285 284 283 281 281 284 286 286 285 286 287 284 284 285 287 284 279 279 282 284 285 284 285 284 285 284 284 285 285 283 282 283 284 284 283 282 281 279 278 277 276 276 275 275 275 275 274 273 272 272 271 271
282 282 282 283 284 284 284 286 285 285 285 285 285 283 285 286 290 284 278 280 283 284 285 285 285 284 284 284 284 285 285 284 284 284 284 284 283 282 280 278 277 276 276 276 275 275 275 274 274 273 272 271 271 271
Wind_Speed
18 20 17 13 14 17 18 18 15 16 12 9 8 8 8 10 9 7 6 8 3 4 4 3 3 3 1 2 3 3 2 2 1 1 1 1 1 1 2 0 2 2 2 1 1 2 2 8 4 3 3 2 1 1
17 19 14 10 10 18 16 16 12 12 6 8 10 10 12 21 17 6 5 9 12 6 4 4 5 5 3 3 3 1 3 1 2 0 1 1 2 1 2 1 2 2 3 3 3 3 2 7 2 3 3 2 1 2
16 18 13 9 10 14 15 12 10 10 3 7 9 7 3 10 19 14 5 5 5 4 3 3 1 2 3 4 2 3 1 3 1 3 2 1 2 1 2 2 2 3 3 3 4 4 6 5 4 3 1 1 1 1
15 15 11 9 9 10 9 9 8 6 4 7 6 9 11 10 12 15 6 6 2 2 2 2 1 1 5 4 3 4 5 2 2 2 1 1 2 0 1 3 3 3 5 4 6 9 3 6 5 2 4 2 2 2
15 14 11 7 9 10 6 7 6 2 5 5 6 4 4 5 6 7 10 11 6 3 2 3 2 1 4 5 3 1 2 2 2 1 1 1 1 2 1 2 6 7 6 5 2 5 2 4 2 2 5 5 3 3
16 14 11 7 7 11 8 4 5 4 2 6 6 5 4 3 3 4 1 7 9 4 1 3 2 1 3 3 3 5 4 2 2 2 1 1 2 2 2 3 3 7 3 2 1 3 3 3 2 1 4 3 2 1
15 13 11 6 8 12 10 7 10 9 10 9 6 6 4 1 1 2 2 3 7 3 1 2 2 1 2 2 1 1 2 2 2 0 1 1 2 2 3 4 3 3 5 5 3 4 2 2 1 4 3 3 3 1
16 12 11 7 5 9 10 10 10 15 18 14 11 9 5 5 3 2 5 4 4 2 2 2 1 2 0 2 2 1 0 1 1 0 1 2 1 2 5 9 4 3 5 5 5 2 3 4 4 4 3 2 2 2
16 13 11 7 4 5 5 5 12 22 20 14 14 11 3 3 2 2 3 5 3 0 1 2 3 2 1 1 0 2 1 2 1 2 2 2 3 6 5 5 7 9 7 6 8 5 4 3 4 5 3 3 3 3
17 14 12 10 7 5 3 12 19 20 18 19 9 2 2 0 3 5 4 2 1 1 0 3 1 2 2 2 2 2 0 1 2 2 1 4 5 12 6 5 4 7 7 10 9 4 4 3 5 5 4 1 2 4
19 15 14 12 11 11 11 14 20 21 18 1 1 2 1 3 2 1 2 2 1 3 3 2 1 3 1 2 2 1 1 0 2 2 2 3 4 4 6 8 7 8 9 9 3 5 5 5 5 4 2 2 4 6
22 17 17 16 15 16 17 18 22 15 4 4 6 6 4 2 1 2 3 1 3 2 2 3 3 2 2 1 1 1 2 1 3 2 2 4 4 6 7 8 8 9 9 8 6 7 7 6 4 2 2 3 5 5
25 21 20 19 18 19 22 22 25 10 12 3 3 3 1 2 4 6 5 3 3 4 4 3 3 2 3 2 2 2 3 4 1 3 4 5 3 6 7 8 7 6 8 8 7 7 6 5 2 1 3 4 5 8
27 24 24 22 20 23 22 26 23 14 3 2 3 4 4 4 5 3 1 2 2 1 6 5 3 2 1 3 3 4 1 2 3 4 6 3 7 9 8 7 9 9 8 5 4 6 5 3 1 2 3 4 6 9
29 26 26 24 22 26 22 28 25 12 2 2 3 5 6 2 1 2 2 2 1 3 5 4 2 2 2 2 2 3 3 5 5 5 2 2 8 9 9 8 8 8 7 7 7 6 4 2 1 3 3 5 7 9
31 23 24 26 24 26 26 30 16 6 1 1 4 3 2 2 2 3 4 3 4 5 1 2 2 2 4 3 4 8 4 6 4 3 1 6 8 7 8 7 6 8 9 8 8 6 4 2 2 4 7 6 6 8
33 11 28 31 28 27 33 13 5 3 5 4 4 3 2 2 2 2 3 4 11 6 2 2 4 5 3 2 4 5 6 3 0 2 2 3 7 7 7 6 8 9 9 9 7 5 4 2 2 5 5 6 9 11
16 24 28 34 33 33 6 5 5 5 8 3 4 4 3 3 4 3 4 5 5 6 5 3 1 4 5 4 4 4 4 1 2 2 3 3 6 8 9 7 10 10 9 9 8 6 3 1 2 3 6 7 10 11
28 30 32 40 35 12 5 6 5 4 5 3 2 1 2 1 2 1 5 8 2 1 5 5 4 4 5 4 3 2 2 3 4 3 3 3 7 9 10 12 12 10 11 10 6 3 2 1 1 3 6 7 9 11
29 31 34 44 37 5 4 3 6 4 4 3 3 4 3 2 3 4 6 7 5 3 4 5 7 4 3 1 2 2 3 5 6 6 3 3 6 10 10 11 8 11 9 6 4 4 3 1 2 4 6 7 9 10
27 27 38 43 15 8 3 4 4 3 3 4 4 5 2 2 3 5 5 5 5 4 4 5 5 6 3 3 5 5 5 9 7 5 5 6 8 9 9 9 12 9 6 5 4 4 2 2 2 5 5 6 7 9
17 39 12 16 3 6 4 8 2 4 3 2 4 4 3 4 5 5 4 6 4 4 5 3 4 3 2 3 3 8 9 10 8 10 12 19 6 5 6 10 10 6 6 5 5 3 3 1 3 5 5 7 8 9
33 16 7 4 3 6 3 14 6 7 5 6 5 5 3 4 3 4 4 5 5 7 7 5 4 6 3 4 4 7 13 13 5 7 12 12 12 13 13 14 12 9 6 5 5 5 3 3 2 3 4 6 7 9
20 8 6 6 8 6 5 5 3 5 4 6 6 4 4 4 4 3 5 5 5 2 5 8 5 4 3 2 4 6 13 13 9 11 14 15 7 8 12 12 10 8 7 9 8 5 4 3 1 2 3 5 6 8
7 7 5 7 4 6 7 9 6 6 5 5 6 4 4 4 4 5 4 4 8 6 8 7 8 8 7 7 6 9 19 18 11 8 13 16 16 13 8 7 7 8 10 10 8 6 5 3 2 1 2 3 6 9
7 7 11 14 8 7 8 7 9 6 5 5 6 3 4 4 5 7 5 11 8 7 9 11 12 10 9 8 9 8 19 25 20 9 14 22 21 16 8 6 4 8 14 12 11 9 8 6 4 2 2 4 5 6
7 6 4 2 5 6 5 3 4 4 7 7 6 7 5 6 6 4 5 4 4 9 24 27 23 13 13 11 16 21 26 28 15 12 20 25 20 14 15 12 8 8 15 15 12 11 9 8 5 3 2 3 4 5
4 7 8 8 4 4 5 5 7 10 7 5 10 7 9 10 9 4 4 3 11 5 11 19 22 21 18 23 28 31 29 24 19 18 21 17 13 12 12 10 8 11 14 13 12 11 9 7 5 4 2 3 5 5
4 6 7 6 3 4 6 7 9 6 6 7 9 9 7 4 1 3 4 6 8 11 8 8 8 21 22 22 25 28 39 36 19 11 12 6 4 13 15 15 15 14 14 14 10 8 7 6 5 3 2 4 5 6
6 5 3 7 7 9 6 5 3 1 1 1 2 2 1 2 2 5 5 7 8 7 13 14 14 18 14 16 15 17 22 24 21 18 11 10 11 19 26 22 18 16 15 14 13 10 8 7 4 2 2 3 4 6
7 3 3 3 4 1 2 2 0 0 1 1 1 2 2 1 2 7 10 9 8 8 12 11 15 15 20 18 16 12 10 25 21 19 14 14 20 21 26 22 20 19 17 15 13 11 10 7 4 2 3 5 6 7
4 5 5 5 3 2 2 2 3 2 1 2 2 1 1 1 4 4 9 17 13 6 15 17 15 16 21 21 21 18 20 32 25 21 19 21 21 23 23 22 21 19 17 15 13 11 9 6 3 2 4 6 7 8
3 3 3 4 4 5 3 3 3 2 1 2 2 2 2 2 5 0 6 17 13 12 13 14 16 21 23 25 28 25 30 34 26 22 19 18 20 23 23 22 21 19 17 14 12 10 7 4 2 3 5 6 7 7
Wind_Direction
306 316 328 339 342 341 341 343 351 3 25 68 102 129 58 23 24 98 52 47 41 88 74 13 19 355 322 312 145 110 239 193 261 35 1 88 277 96 257 0 318 290 279 205 202 247 240 150 136 246 44 56 115 160
297 310 321 332 340 334 340 344 346 2 56 103 114 110 71 46 38 65 77 60 65 70 91 94 87 54 26 338 322 146 332 6 360 218 188 163 198 194 354 261 176 251 319 342 274 32 79 189 350 63 16 13 174 241
285 306 311 325 339 336 336 342 340 356 99 149 174 170 68 31 26 41 71 53 71 110 121 175 62 22 355 321 291 304 132 357 319 344 3 29 260 315 255 238 286 208 201 250 316 149 231 214 218 247 233 257 39 101
276 298 304 313 312 322 329 332 335 353 96 177 182 214 243 296 334 3 38 20 23 80 125 108 2 61 346 351 248 264 298 290 317 291 299 283 282 275 315 343 270 18 156 240 265 268 234 236 244 256 205 195 171 122
270 290 289 290 296 315 330 321 321 356 107 154 199 206 239 278 322 349 25 39 44 340 105 131 142 7 18 40 66 135 229 288 297 257 268 313 42 253 189 285 240 188 202 203 280 70 35 95 43 264 207 203 193 201
262 283 283 289 293 300 291 262 244 238 187 151 187 209 224 243 281 337 247 17 31 65 144 158 78 135 14 36 66 59 39 34 359 330 8 82 27 282 269 259 267 193 246 356 43 88 82 91 50 83 189 163 153 199
254 277 271 280 294 301 294 267 267 231 202 175 168 150 148 173 307 10 349 313 347 17 194 118 205 107 346 307 70 75 52 57 347 26 237 294 194 259 258 246 117 200 197 171 154 146 167 195 90 133 128 113 105 101
242 260 265 261 282 292 307 313 240 200 181 168 166 160 141 62 52 3 341 344 351 7 348 144 211 217 264 165 182 345 159 170 63 26 192 237 168 233 254 239 178 163 172 189 180 157 89 114 127 134 131 155 229 263
235 247 241 240 233 286 326 66 139 159 164 162 154 142 99 15 331 323 303 316 343 210 284 203 189 198 186 120 76 151 338 240 87 236 197 218 202 229 239 206 196 191 190 171 151 156 155 164 147 153 176 196 256 288
226 237 228 220 195 169 215 137 138 150 148 145 140 179 141 147 318 332 322 278 268 240 212 232 48 143 222 186 149 161 202 279 251 147 144 226 251 248 215 196 182 184 173 153 148 176 181 182 190 185 201 210 278 298
220 222 220 212 194 167 174 172 152 146 141 142 160 87 91 83 61 46 282 267 216 253 187 129 188 138 198 172 158 257 171 180 252 142 244 240 257 210 165 202 181 176 172 178 144 110 141 150 164 168 191 257 280 288
219 212 208 203 198 180 171 184 160 151 180 175 134 110 94 67 49 305 245 301 228 270 146 177 153 108 137 291 164 214 204 173 245 136 246 253 239 143 158 160 167 170 166 161 157 138 133 124 118 123 291 286 288 299
213 205 203 199 195 190 178 180 180 167 139 127 83 86 183 139 197 208 214 206 236 177 172 165 147 145 147 200 99 163 220 227 101 221 234 236 115 161 159 151 147 143 147 151 154 146 132 119 115 226 275 278 292 295
208 203 200 199 193 191 186 177 181 172 138 161 150 183 218 187 247 210 265 359 27 166 155 152 129 162 138 165 146 175 200 243 248 242 235 211 172 166 161 156 150 164 163 156 145 139 136 141 227 276 269 283 296 303
204 201 198 198 192 192 189 186 182 177 168 183 166 221 199 202 317 112 140 275 207 197 151 133 123 195 148 158 205 127 162 248 235 240 233 143 146 148 154 154 159 159 161 167 163 168 184 181 212 274 273 292 299 303
197 189 197 195 190 185 184 181 172 166 83 234 239 242 154 125 175 235 188 182 161 169 293 285 152 177 217 183 181 210 190 226 241 220 166 131 147 151 149 151 151 155 160 160 166 176 170 175 262 306 314 312 312 313
178 187 195 189 182 175 173 145 134 161 207 217 227 250 236 106 164 194 223 162 152 150 237 231 213 205 105 201 240 197 219 246 224 152 143 129 152 151 144 139 141 147 150 156 164 164 142 151 310 317 309 320 314 310
188 187 184 178 168 162 136 165 166 198 215 196 211 179 200 226 158 170 193 170 165 177 152 208 324 218 206 206 228 227 225 56 353 128 143 143 140 141 149 145 150 153 153 163 160 151 147 168 270 283 299 310 312 310
183 176 177 171 165 146 165 196 199 228 204 158 184 185 183 172 207 135 175 194 195 317 142 149 221 228 230 224 250 215 178 184 166 160 132 138 145 145 135 142 148 154 163 161 166 157 135 159 286 297 304 310 308 316
168 171 176 176 169 129 153 196 197 233 188 183 169 176 189 190 147 190 183 178 172 183 216 208 204 208 215 268 261 265 174 161 143 139 146 158 153 143 145 151 159 165 160 158 149 143 152 198 222 291 297 310 313 316
156 174 180 172 193 196 190 162 203 236 158 184 156 160 154 152 193 191 205 173 194 217 224 232 233 236 166 244 265 265 180 176 188 175 163 159 168 153 149 164 163 170 179 173 163 154 166 226 284 292 302 314 314 311
158 172 163 170 137 181 210 190 172 153 162 116 158 187 179 187 195 199 147 194 225 220 217 208 217 210 225 238 217 222 216 182 147 124 123 132 147 155 165 171 171 187 175 156 158 165 180 243 283 291 313 320 320 316
156 154 136 137 141 191 207 153 165 175 170 175 158 185 216 212 177 124 219 209 228 212 210 205 189 177 202 192 204 212 194 176 160 157 156 149 144 150 148 170 190 173 159 168 172 164 192 221 260 304 325 326 323 321
145 152 185 185 193 178 145 187 160 150 143 166 174 209 201 196 140 222 248 215 224 177 197 196 175 134 129 187 197 195 192 183 147 136 159 143 140 149 162 172 184 182 169 168 168 174 199 212 257 322 329 326 323 323
136 188 183 193 168 153 162 162 177 182 162 167 178 214 182 159 199 228 226 227 212 206 206 189 191 201 193 201 176 186 197 179 168 165 174 158 133 123 139 165 179 187 179 169 173 181 196 204 215 275 305 314 319 325
187 172 189 182 170 176 170 149 183 161 134 167 209 128 143 176 224 243 202 225 217 204 194 194 195 192 205 195 176 177 195 187 169 161 178 173 165 166 168 173 182 209 202 193 181 181 186 189 195 228 273 307 315 324
195 177 166 164 151 134 148 109 130 156 173 191 164 155 166 218 237 237 225 193 206 212 207 199 193 199 200 183 172 170 180 177 177 172 180 179 183 192 195 177 189 210 194 188 184 184 179 181 188 207 258 302 309 321
166 161 158 166 170 173 140 145 161 186 195 166 143 178 191 201 217 210 212 214 216 227 202 194 200 204 193 172 157 151 155 157 149 146 147 159 174 185 184 183 188 185 175 179 181 178 177 180 190 208 241 285 300 319
151 156 130 163 144 184 206 179 195 209 157 168 189 211 222 233 148 179 204 215 198 165 148 144 126 145 131 143 152 155 160 155 146 154 163 164 167 202 180 170 172 172 172 171 174 177 178 197 203 221 248 279 294 310
154 164 124 163 171 204 205 186 193 127 204 224 338 9 281 241 215 203 181 178 193 201 171 170 169 162 156 159 153 150 168 174 182 172 174 180 193 192 185 180 177 179 178 176 180 178 171 193 201 229 279 299 317 319
130 119 117 172 218 141 137 131 88 111 337 235 184 250 273 351 273 227 209 202 214 193 167 146 173 175 162 162 165 154 170 188 180 179 174 179 179 177 178 176 179 180 178 181 182 183 188 194 200 227 284 303 315 309
150 160 145 161 202 152 146 154 145 208 216 223 216 195 349 316 261 196 205 175 182 189 203 181 174 183 184 171 167 163 164 175 174 169 161 161 165 166 167 170 174 175 176 180 179 186 190 186 195 254 288 301 304 309
111 95 96 121 139 169 174 135 146 193 229 246 240 206 221 227 254 119 175 189 191 189 197 188 166 159 160 159 164 162 170 166 163 159 159 164 165 163 163 168 170 173 176 174 177 184 180 177 221 277 292 298 308 317